Weather History for Hot Springs, VA

Change the Weather History Date:

Monday, December 31, 2012

  Actual Average Record
Temperature  
Mean Temperature 22 °F -  
Max Temperature 30 °F 33 °F 55 °F (2002)
Min Temperature 15 °F 20 °F 6 °F (2000)
Degree Days  
Heating Degree Days 42    
Moisture  
Dew Point 12 °F    
Average Humidity 58    
Maximum Humidity 93    
Minimum Humidity 40    
Precipitation  
Precipitation 0.00 in - - ()
Sea Level Pressure  
Sea Level Pressure 30.11 in    
Wind  
Wind Speed 18 mph (West)    
Max Wind Speed 26 mph    
Max Gust Speed 37 mph    
Visibility 9 miles    
Events Snow    
Averages and records for this station are not official NWS values.
T = Trace of Precipitation, MM = Missing Value Source: NWS Daily Summary

Daily Weather History Graph

Daily Weather History Graph

Search for Another Location

Airport:

Trip Planner

Search our weather history database for the weather conditions in past years. The results will help you decide how hot, cold, wet, or windy it might be!

Date:

Astronomy

Dec. 31, 2012 Rise Set
Actual Time 7:35 AM EST 5:10 PM EST
Civil Twilight 7:05 AM EST 5:39 PM EST
Nautical Twilight 6:32 AM EST 6:12 PM EST
Astronomical Twilight 6:00 AM EST 6:44 PM EST
Moon 8:35 PM EST (12/31) 9:19 AM EST (12/31)
Length of Visible Light 10h 33m
Length of Day
9h 35m
Waning Gibbous, 90% of the Moon is Illuminated
Dec 31
Waning Gibbous
Jan 4
Last Quarter
Jan 11
New
Jan 18
First Quarter
Jan 26
Full

Hourly Weather History & Observations

Time (EST) Temp. Windchill Dew Point Humidity Pressure Visibility Wind Dir Wind Speed Gust Speed Precip Events Conditions
12:15 AM 17.6 °F 2.2 °F 12.2 °F 79% 30.19 in 10.0 mi West 17.3 mph - N/A   Clear
12:35 AM 15.8 °F 0.3 °F 12.2 °F 86% 30.19 in 10.0 mi West 16.1 mph 20.7 mph N/A   Clear
12:55 AM 15.8 °F -0.2 °F 14.0 °F 93% 30.20 in 1.8 mi West 17.3 mph - N/A   Mist
1:15 AM 15.8 °F -0.2 °F 14.0 °F 93% 30.20 in 10.0 mi West 17.3 mph - N/A   Clear
1:35 AM 17.6 °F 2.7 °F 14.0 °F 86% 30.21 in 10.0 mi West 16.1 mph - N/A   Clear
1:55 AM 17.6 °F 3.2 °F 14.0 °F 86% 30.20 in 10.0 mi West 15.0 mph - N/A   Clear
2:15 AM 17.6 °F 3.2 °F 14.0 °F 86% 30.20 in 10.0 mi West 15.0 mph - N/A   Clear
2:35 AM 17.6 °F 2.7 °F 14.0 °F 86% 30.20 in 10.0 mi West 16.1 mph - N/A   Clear
2:55 AM 17.6 °F 2.7 °F 14.0 °F 86% 30.20 in 10.0 mi West 16.1 mph - N/A   Clear
3:15 AM 17.6 °F 2.7 °F 14.0 °F 86% 30.20 in 10.0 mi West 16.1 mph - N/A   Clear
3:35 AM 17.6 °F 2.7 °F 14.0 °F 86% 30.19 in 10.0 mi West 16.1 mph - N/A   Clear
3:55 AM 17.6 °F 3.2 °F 14.0 °F 86% 30.20 in 10.0 mi West 15.0 mph - N/A   Clear
4:15 AM 17.6 °F 3.2 °F 14.0 °F 86% 30.19 in 10.0 mi West 15.0 mph - N/A   Clear
4:35 AM 19.4 °F 5.0 °F 12.2 °F 74% 30.19 in 10.0 mi West 16.1 mph - N/A   Clear
4:55 AM 19.4 °F 6.6 °F 12.2 °F 74% 30.19 in 10.0 mi West 12.7 mph - N/A   Clear
5:15 AM 21.2 °F 8.9 °F 12.2 °F 68% 30.18 in 10.0 mi West 12.7 mph - N/A   Clear
5:35 AM 19.4 °F 6.0 °F 12.2 °F 74% 30.17 in 10.0 mi West 13.8 mph - N/A   Clear
5:55 AM 21.2 °F 8.3 °F 10.4 °F 63% 30.18 in 10.0 mi West 13.8 mph - N/A   Clear
6:15 AM 21.2 °F 7.8 °F 12.2 °F 68% 30.18 in 10.0 mi West 15.0 mph - N/A   Clear
6:35 AM 19.4 °F 5.0 °F 12.2 °F 74% 30.19 in 10.0 mi West 16.1 mph - N/A   Clear
6:55 AM 19.4 °F 4.5 °F 12.2 °F 74% 30.19 in 10.0 mi West 17.3 mph - N/A   Clear
7:15 AM 21.2 °F 7.3 °F 12.2 °F 68% 30.18 in 10.0 mi West 16.1 mph - N/A   Clear
7:35 AM 21.2 °F 7.8 °F 12.2 °F 68% 30.17 in 10.0 mi West 15.0 mph - N/A   Clear
7:55 AM 24.8 °F 11.5 °F 10.4 °F 54% 30.18 in - West 17.3 mph - N/A   Clear
8:15 AM 24.8 °F 11.5 °F 10.4 °F 54% 30.17 in - West 17.3 mph 21.9 mph N/A   Clear
8:35 AM 24.8 °F 11.1 °F 10.4 °F 54% 30.18 in - West 18.4 mph 24.2 mph N/A   Clear
8:55 AM 26.6 °F 13.1 °F 8.6 °F 47% 30.17 in - West 19.6 mph 27.6 mph N/A   Clear
9:15 AM 26.6 °F 12.7 °F 8.6 °F 47% 30.18 in - West 20.7 mph 27.6 mph N/A   Clear
9:35 AM 28.4 °F 15.1 °F 6.8 °F 40% 30.17 in - West 20.7 mph 28.8 mph N/A   Clear
9:55 AM 28.4 °F 14.7 °F 6.8 °F 40% 30.17 in - West 21.9 mph 29.9 mph N/A   Clear
10:15 AM 28.4 °F 15.1 °F 8.6 °F 43% 30.16 in - West 20.7 mph 27.6 mph N/A   Clear
10:35 AM 28.4 °F 15.4 °F 6.8 °F 40% 30.16 in - West 19.6 mph 33.4 mph N/A   Clear
10:55 AM 28.4 °F 15.8 °F 8.6 °F 43% 30.16 in - West 18.4 mph 26.5 mph N/A   Clear
11:15 AM 28.4 °F 15.4 °F 10.4 °F 47% 30.15 in - West 19.6 mph 26.5 mph N/A   Clear
11:35 AM 28.4 °F 15.4 °F 10.4 °F 47% 30.14 in - West 19.6 mph 26.5 mph N/A   Clear
11:55 AM 28.4 °F 14.1 °F 8.6 °F 43% 30.12 in - West 24.2 mph 29.9 mph N/A   Clear
12:15 PM 30.2 °F 17.4 °F 8.6 °F 40% 30.11 in - West 20.7 mph 25.3 mph N/A   Scattered Clouds
12:35 PM 30.2 °F 17.4 °F 8.6 °F 40% 30.09 in - WNW 20.7 mph 26.5 mph N/A   Scattered Clouds
12:55 PM 30.2 °F 17.4 °F 8.6 °F 40% 30.10 in - West 20.7 mph 24.2 mph N/A   Scattered Clouds
1:15 PM 30.2 °F 17.1 °F 10.4 °F 44% 30.08 in - West 21.9 mph 25.3 mph N/A   Scattered Clouds
1:35 PM 30.2 °F 18.1 °F 10.4 °F 44% 30.05 in - West 18.4 mph 24.2 mph N/A   Clear
1:55 PM 30.2 °F 17.4 °F 10.4 °F 44% 30.06 in - West 20.7 mph 24.2 mph N/A   Clear
1:57 PM 30.2 °F 17.8 °F 10.4 °F 44% 30.06 in - WNW 19.6 mph 24.2 mph N/A   Clear
2:35 PM 30.2 °F 18.5 °F 10.4 °F 44% 30.06 in - West 17.3 mph 26.5 mph N/A   Scattered Clouds
2:55 PM 30.2 °F 17.8 °F 10.4 °F 44% 30.05 in - West 19.6 mph 28.8 mph N/A   Scattered Clouds
3:15 PM 30.2 °F 18.5 °F 12.2 °F 47% 30.06 in - West 17.3 mph 26.5 mph N/A   Mostly Cloudy
3:35 PM 30.2 °F 18.5 °F 12.2 °F 47% 30.06 in - West 17.3 mph - N/A   Scattered Clouds
3:55 PM 30.2 °F 19.3 °F 12.2 °F 47% 30.05 in - West 15.0 mph 23.0 mph N/A   Clear
4:15 PM 30.2 °F 18.5 °F 12.2 °F 47% 30.06 in - West 17.3 mph 24.2 mph N/A   Clear
4:35 PM 30.2 °F 18.1 °F 12.2 °F 47% 30.05 in - West 18.4 mph 23.0 mph N/A   Clear
4:55 PM 30.2 °F 18.9 °F 12.2 °F 47% 30.05 in - West 16.1 mph - N/A   Clear
5:15 PM 28.4 °F 16.2 °F 12.2 °F 51% 30.05 in - West 17.3 mph 24.2 mph N/A   Clear
5:35 PM 28.4 °F 15.1 °F 12.2 °F 51% 30.05 in - WSW 20.7 mph - N/A   Scattered Clouds
5:55 PM 28.4 °F 15.1 °F 10.4 °F 47% 30.04 in - West 20.7 mph - N/A   Scattered Clouds
6:15 PM 28.4 °F 15.4 °F 10.4 °F 47% 30.04 in - West 19.6 mph 25.3 mph N/A   Clear
6:35 PM 28.4 °F 15.1 °F 10.4 °F 47% 30.04 in - West 20.7 mph 28.8 mph N/A   Clear
6:55 PM 30.2 °F 17.4 °F 8.6 °F 40% 30.03 in - West 20.7 mph 32.2 mph N/A   Clear
7:15 PM 30.2 °F 15.9 °F 8.6 °F 40% 30.02 in - West 26.5 mph 31.1 mph N/A   Clear
7:35 PM 30.2 °F 16.5 °F 8.6 °F 40% 30.02 in - West 24.2 mph 29.9 mph N/A   Clear
8:15 PM 28.4 °F 14.7 °F 10.4 °F 47% 30.00 in - West 21.9 mph 31.1 mph N/A   Scattered Clouds
8:35 PM 30.2 °F 16.2 °F 10.4 °F 44% 30.00 in - West 25.3 mph 31.1 mph N/A   Scattered Clouds
8:55 PM 30.2 °F 16.2 °F 12.2 °F 47% 30.00 in - West 25.3 mph 32.2 mph N/A   Clear
9:15 PM 30.2 °F 16.2 °F 15.8 °F 55% 29.99 in - West 25.3 mph 36.8 mph N/A   Clear
9:35 PM 30.2 °F 16.5 °F 15.8 °F 55% 29.99 in - West 24.2 mph 34.5 mph N/A   Clear
9:55 PM 30.2 °F 16.2 °F 17.6 °F 60% 29.98 in - West 25.3 mph 32.2 mph N/A   Clear
10:15 PM 30.2 °F 16.5 °F 17.6 °F 60% 29.99 in - West 24.2 mph 29.9 mph N/A   Clear
10:35 PM 30.2 °F 17.1 °F 19.4 °F 64% 29.99 in - West 21.9 mph 34.5 mph N/A   Clear
11:15 PM 30.2 °F 17.1 °F 19.4 °F 64% 29.98 in - West 21.9 mph 28.8 mph N/A   Clear
11:35 PM 30.2 °F 17.1 °F 19.4 °F 64% 29.98 in 1.5 mi West 21.9 mph 27.6 mph N/A Snow Light Snow
11:55 PM 30.2 °F 17.1 °F 19.4 °F 64% 29.97 in - West 21.9 mph 29.9 mph N/A   Scattered Clouds